www.pogodaiklimat.ru

ПОГОДА в Монро, MI

  • Прогноз погоды в Монро
  • Монитор погоды в Монро
  • Климат в Монро

АРХИВ ПОГОДЫ в Монро

Время (UTC), дата Ветер
(напр.,м/с)
 
Видим.   Явления Облачность Т
(С)
Тd
(С)
f
(%)
Тe
(С)
Тes
(С)
Комфортность

P
(гПа)

Po
(гПа)
Тmin
(С)
Tmax
(С)
R
(мм)
SD
(см)
14:56 21.03 С  16 км    10/10 330 м  +5.6  +5.1  97  +2  +2      990.0         
15:15 21.03 СЗ  16 км    10/10 390 м  +5.8  +5.0  95  +3  +3      990.0         
15:16 21.03 СЗ  16 км    10/10 390 м  +5.8  +5.0  95  +3  +3      990.0         
15:35 21.03 СЗ  16 км    10/10 540 м  +6.0  +5.0  93  +3  +3      990.0         
15:36 21.03 СЗ  16 км    10/10 540 м  +6.0  +5.0  93  +3  +3      990.0         
15:55 21.03   16 км    10/10 450 м  +6.5  +5.4  93  +5  +5      989.7         
16:15 21.03   16 км    10/10 450 м  +6.6  +4.9  89  +6  +6      989.7         
16:35 21.03 СЗ  16 км    10/10 540 м  +6.7  +4.3  85  +4  +4      989.7         
16:55 21.03 СЗ  16 км    10/10 600 м  +6.7  +4.6  86  +4  +4      989.7  +4.0  +6.7     
17:15 21.03 С  16 км    10/10 540 м  +6.8  +4.4  85  +4  +4      989.4         
17:16 21.03 С  16 км    10/10 540 м  +6.7  +4.4  85  +4  +4      989.4         
17:35 21.03 СЗ  16 км    10/10 540 м  +7.0  +4.5  84  +4  +4      989.4         
17:36 21.03 СЗ  16 км    10/10 540 м  +7.0  +4.5  84  +4  +4      989.0         
17:55 21.03 СЗ  16 км    10/10 540 м  +7.0  +4.5  84  +4  +4      989.0         
17:56 21.03 СЗ  16 км    10/10 600 м  +7.0  +4.5  84  +4  +4      989.0         
18:15 21.03 СЗ  16 км    10/10 600 м  +6.7  +4.2  84  +3  +3      989.0         
18:16 21.03 СЗ  16 км    10/10 600 м  +6.7  +4.1  83  +3  +3      989.0         
18:35 21.03 СЗ  16 км    10/10 600 м  +6.5  +3.7  82  +3  +3      989.0         
18:36 21.03 СЗ  16 км    10/10 600 м  +6.5  +3.8  83  +3  +3      989.0         
18:55 21.03 СЗ  16 км    10/10 600 м  +6.0  +3.7  85  +2  +2      989.0         
19:15 21.03 З  5
{7} 
16 км    10/10 540 м  +5.8  +4.0  88  +1  +1      989.0         
19:35 21.03 З  16 км    10/10 480 м  +5.3  +3.6  89  0  0      989.4         
19:36 21.03 З  16 км    10/10 480 м  +5.3  +3.5  88  +1  +1      989.4         
19:55 21.03 СЗ  16 км    10/10 480 м  +5.1  +3.3  88  0  0      989.4         
19:56 21.03 СЗ  16 км    10/10 480 м  +5.2  +3.3  88  0  0      989.4         
20:15 21.03 З  16 км    10/10 480 м  +5.0  +3.1  88  -1  -1      989.4         
20:16 21.03 З  16 км    10/10 480 м  +5.0  +3.1  88  -0  -0      989.0         
20:35 21.03 СЗ  16 км    10/10 480 м  +4.7  +3.0  89  0  0      989.4         
20:36 21.03 СЗ  16 км    10/10 480 м  +4.7  +3.0  89  +1  +1      989.4         
20:55 21.03 З  16 км    10/10 480 м  +4.5  +2.8  89  -1  -1      989.4         
20:56 21.03 З  16 км    10/10 480 м  +4.6  +2.8  88  -1  -1      989.4         
21:15 21.03 З  16 км    10/10 480 м  +4.5  +2.6  87  -1  -1      989.4         
21:16 21.03 З  16 км    10/10 480 м  +4.5  +2.5  87  -1  -1      989.4         
21:35 21.03 З  6
{8} 
16 км    10/10 480 м  +4.2  +2.8  91  -2  -2      989.4         
21:36 21.03 З  6
{8} 
16 км    10/10 480 м  +4.2  +2.8  91  -2  -2      989.4         
21:55 21.03 СЗ  5
{9} 
16 км    10/10 420 м  +3.7  +2.6  93  -2  -2      989.4         
22:15 21.03 СЗ  7
{9} 
16 км    10/10 420 м  +3.5  +2.5  93  -3  -3      989.7         
22:16 21.03 СЗ  7
{9} 
16 км    10/10 420 м  +3.5  +2.5  93  -3  -3      989.7         
22:35 21.03 СЗ  16 км    10/10 420 м  +3.3  +2.4  94  -2  -2      989.7         
22:36 21.03 СЗ  16 км    10/10 420 м  +3.3  +2.4  94  -2  -2      989.7         
22:55 21.03 СЗ  16 км    10/10 690 м  +3.3  +2.5  94  -1  -1      989.4  +3.3  +7.0     
22:56 21.03 З  16 км    10/10 690 м  +3.3  +2.5  94  -1  -1      989.4  +3.3  +7.0     
23:15 21.03 З  16 км    10/10 690 м  +3.3  +2.7  96  -1  -1      989.7         
23:16 21.03 З  16 км    10/10 690 м  +3.3  +2.7  96  -1  -1      989.7         
23:35 21.03 З  16 км    10/10 690 м  +3.5  +2.8  95  -0  -0      989.7         
23:55 21.03 З  16 км    10/10 690 м  +3.5  +2.7  94  +1  +1      989.7         
00:15 22.03 З  16 км    10/10 750 м  +3.5  +2.6  94  -0  -0      989.7         
00:16 22.03 З  16 км    10/10 750 м  +3.5  +2.6  94  -0  -0      989.7         

 

Местоположение метеостанции Custer Airport: широта 41.9400 долгота -83.4347 высота над уровнем моря 188 м.

В архиве по умолчанию представлена погода в Монро за последние 1-2 суток. Обновление информации о фактической погоде в базе происходит ежечасно! Архивные данные за месяц целиком и за предыдущие месяцы Вы можете получить, выбрав интересующий диапазон дат из раскрывающегося списка и нажав кнопку "Ввод!".

Внимание! Архив погоды МЕТАР в базе сайта хранится не более 60 дней. Нет смысла пытаться выбрать более раннюю дату.

Внимание! Время в таблицах - всемирное. Для получения местного времени необходимо прибавить поправку, которая в Монро равна -5 ч.

Ветер - указаны скорость ветра в м/с и направление, откуда дует ветер: С - северный, СВ - северо-восточный, В - восточный, ЮВ - юго-восточный, Ю - южный, ЮЗ - юго-западный, З - западный, СЗ - северо-западный.
Видимость - горизонтальная дальность видимости в метрах или километрах. При видимости от 1 до 10 км при отсутствии осадков обычно наблюдается дымка, при ухудшении видимости до 1 км и менее - туман. В сухую погоду видимость может ухудшаться дымом, пылью или мглою.
Атмосферные явления - указаны явления, наблюдавшиеся в указанный момент времени.
Облачность - указаны через наклонную черту верхняя и нижняя облачность в баллах и высота нижней границы облаков в метрах. Внимание: облачность, как и прочие метеорологические величины в США измеряются автоматическими метеостанциями. Указанные значения в баллах носят условный характер и показывают процент времени, в течение которого, в среднем, лазерный луч высотомера отражался от облаков обратно.
T - Температура воздуха - температура, измеренная на высоте 2 м над землей.
Td - Температура точки росы - температура, при понижении до которой содержащийся в воздухе водяной пар достигнет насыщения.
f - Относительная влажность воздуха - влажноcть воздуха, измеренная на высоте 2 м над землей.
Te - Эффективная температура - температура, которую ощущает одетый по сезону человек в тени. Характеристика душности погоды. При расчете учитывается влияние влажности воздуха и скорости ветра на теплоощущения человека.
Tes - Эффективная температура на солнце - температура, которую ощущает человек, с поправкой на солнечный нагрев. Характеристика знойности погоды. Зависит от высоты солнца над горизонтом, облачности и скорости ветра. Ночью, в пасмурную погоду, а также при ветре 12 м/с и более поправка равна нулю.
P - Атмосферное давление - приведенное к уровню моря атмосферное давление.
Po - Атмосферное давление - измеренное на уровне метеостанции атмосферное давление.
Tmin - Минимальная температура - минимум температуры воздуха на высоте 2 м над землей.
Tmax - Максимальная температура - максимум температуры воздуха на высоте 2 м над землей.
R - Количество осадков - Количество выпавших осадков за 3 или 6 часов, мм.
SD - Снежный покров - Высота снежного покрова, см.